This demonstration page uses our WeatherBlox Daily Observations layout. Learn more.

Hourly Observations for May 13, 2018

Temp ( °F °C ) Dew Point ( °F °C ) Humidity (%) Winds ( mph kmh ) Pressure ( in mb ) Visibility ( mi km ) Precip ( " mm )
12:15 am 00:15 Cloudy 68 20 64 18 88 88 Calm 30.06 1018 10 16.09344 0 0
12:35 am 00:35 Cloudy 70 21 64 18 83 83 Calm 30.06 1018 10 16.09344 0 0
12:55 am 00:55 Cloudy 70 21 64 18 83 83 E 3 6 30.06 1018 10 16.09344 0 0
1:15 am 01:15 Cloudy 70 21 64 18 83 83 Calm 30.06 1018 10 16.09344 0 0
1:35 am 01:35 Cloudy 70 21 64 18 83 83 ENE 3 6 30.06 1018 10 16.09344 0 0
1:55 am 01:55 Cloudy 70 21 64 18 83 83 E 3 6 30.06 1018 10 16.09344 0 0
2:15 am 02:15 Cloudy 68 20 64 18 88 88 E 6 9 30.06 1018 10 16.09344 0 0
2:35 am 02:35 Cloudy 68 20 64 18 88 88 E 3 6 30.06 1018 10 16.09344 0 0
2:55 am 02:55 Cloudy 68 20 64 18 88 88 E 6 9 30.06 1018 10 16.09344 0 0
3:15 am 03:15 Cloudy 68 20 64 18 88 88 Calm 30.06 1018 10 16.09344 0 0
3:35 am 03:35 Cloudy with Nearby Thunderstorms 68 20 63 17 83 83 ENE 6 9 30.06 1018 10 16.09344 0 0
3:55 am 03:55 Cloudy 66 19 63 17 88 88 NNE 3 6 30.06 1018 10 16.09344 0 0
4:15 am 04:15 Cloudy with Light Thunderstorms 66 19 64 18 94 94 N 9 15 30.09 1019 10 16.09344 0 0
4:35 am 04:35 Cloudy with Heavy Thunderstorms 64 18 64 18 100 100 Calm 30.09 1019 2.5 4.02336 0.15 3.81
4:55 am 04:55 Cloudy with Rain 64 18 64 18 100 100 SE 6 9 30.09 1019 5 8.04672 0.2 5.08
5:15 am 05:15 Cloudy with Heavy Rain 63 17 63 17 100 100 SSE 7 11 30.06 1018 4 6.437376 0.07 1.778
5:35 am 05:35 Cloudy with Light Rain 63 17 63 17 100 100 SE 3 6 30.06 1018 7 11.265408 0.1 2.54
5:55 am 05:55 Mostly Cloudy with Light Rain 63 17 63 17 100 100 SE 3 6 30.09 1019 7 11.265408 0.11 2.794
6:15 am 06:15 Cloudy 63 17 63 17 100 100 ESE 3 6 30.09 1019 7 11.265408 0.01 0.254
6:35 am 06:35 Cloudy with Mist and Fog 61 16 61 16 100 100 Calm 30.09 1019 4 6.437376 0.01 0.254
6:55 am 06:55 Cloudy with Mist and Fog 61 16 61 16 100 100 Calm 30.09 1019 5 8.04672 0.01 0.254
7:15 am 07:15 Cloudy with Mist and Fog 61 16 61 16 100 100 Calm 30.09 1019 5 8.04672 0 0
7:35 am 07:35 Cloudy with Light Rain 63 17 63 17 100 100 Calm 30.09 1019 5 8.04672 0 0
7:55 am 07:55 Cloudy with Nearby Thunderstorms 63 17 63 17 100 100 Calm 30.09 1019 7 11.265408 0 0
8:15 am 08:15 Cloudy 63 17 63 17 100 100 Calm 30.09 1019 10 16.09344 0 0
8:35 am 08:35 Mostly Cloudy 63 17 63 17 100 100 Calm 30.12 1020 10 16.09344 0 0
8:55 am 08:55 Cloudy with Light Rain 63 17 63 17 100 100 Calm 30.12 1020 10 16.09344 0 0
9:15 am 09:15 Cloudy with Light Rain 63 17 63 17 100 100 ESE 5 7 30.12 1020 5 8.04672 0 0
9:35 am 09:35 Cloudy with Light Rain 63 17 63 17 100 100 NE 3 6 30.12 1020 4 6.437376 0.01 0.254
9:55 am 09:55 Cloudy with Rain 63 17 63 17 100 100 E 5 7 30.09 1019 2.5 4.02336 0.04 1.016
10:15 am 10:15 Cloudy with Mist and Fog 63 17 63 17 100 100 SE 5 7 30.06 1018 4 6.437376 0 0
10:35 am 10:35 Cloudy 63 17 63 17 100 100 SSE 6 9 30.09 1019 7 11.265408 0 0
10:55 am 10:55 Cloudy 64 18 64 18 100 100 SSE 6 9 30.06 1018 10 16.09344 0 0
11:15 am 11:15 Cloudy 64 18 64 18 100 100 S 5 7 30.06 1018 10 16.09344 0 0
11:35 am 11:35 Cloudy 64 18 64 18 100 100 S 6 9 30.09 1019 10 16.09344 0 0
11:55 am 11:55 Cloudy 66 19 64 18 94 94 SSW 8 13 30.09 1019 10 16.09344 0 0
12:15 pm 12:15 Cloudy 66 19 64 18 94 94 SSW 3 6 30.09 1019 10 16.09344 0 0
12:35 pm 12:35 Cloudy 68 20 64 18 88 88 SSW 5 7 30.09 1019 10 16.09344 0 0
12:55 pm 12:55 Cloudy 68 20 64 18 88 88 SSE 6 9 30.06 1018 10 16.09344 0 0
1:15 pm 13:15 Cloudy 70 21 66 19 88 88 SE 6 9 30.06 1018 10 16.09344 0 0
1:35 pm 13:35 Cloudy 70 21 66 19 88 88 E 7 11 30.06 1018 10 16.09344 0 0
1:55 pm 13:55 Cloudy 70 21 66 19 88 88 E 7 11 30.06 1018 10 16.09344 0 0
2:15 pm 14:15 Cloudy 70 21 66 19 88 88 E 7 11 30.06 1018 10 16.09344 0 0
2:35 pm 14:35 Cloudy 70 21 66 19 88 88 E 8 13 30.06 1018 10 16.09344 0 0
2:55 pm 14:55 Cloudy 68 20 66 19 94 94 E 8 13 30.03 1017 10 16.09344 0 0
3:15 pm 15:15 Cloudy 64 18 64 18 100 100 E 8 13 30.03 1017 7 11.265408 0 0
3:35 pm 15:35 Cloudy with Mist and Fog 63 17 63 17 100 100 E 13 20 30.03 1017 5 8.04672 0 0
3:55 pm 15:55 Cloudy with Mist and Fog 63 17 63 17 100 100 E 12 19 30.03 1017 4 6.437376 0 0
4:15 pm 16:15 Cloudy with Mist and Fog 61 16 61 16 100 100 E 12 19 30.03 1017 5 8.04672 0 0
4:35 pm 16:35 Cloudy with Mist and Fog 61 16 61 16 100 100 E 7 11 30.03 1017 4 6.437376 0 0
4:55 pm 16:55 Cloudy with Mist and Fog 61 16 61 16 100 100 E 12 19 30.03 1017 5 8.04672 0 0
5:15 pm 17:15 Cloudy 61 16 61 16 100 100 E 6 9 30.03 1017 7 11.265408 0 0
5:35 pm 17:35 Cloudy 61 16 61 16 100 100 ESE 9 15 30.03 1017 7 11.265408 0 0
5:55 pm 17:55 Cloudy 61 16 61 16 100 100 ESE 8 13 30.03 1017 7 11.265408 0 0
6:15 pm 18:15 Cloudy with Mist and Fog 59 15 59 15 100 100 ESE 9 15 30.03 1017 5 8.04672 0 0
6:35 pm 18:35 Cloudy with Mist and Fog 59 15 59 15 100 100 ESE 7 11 30.03 1017 4 6.437376 0 0
6:55 pm 18:55 Cloudy with Mist and Fog 59 15 59 15 100 100 E 9 15 30.03 1017 4 6.437376 0 0
7:15 pm 19:15 Cloudy with Nearby Thunderstorms 59 15 59 15 100 100 ESE 7 11 30.03 1017 4 6.437376 0 0
7:35 pm 19:35 Cloudy with Mist and Fog 59 15 59 15 100 100 SE 7 11 30.03 1017 2.5 4.02336 0 0
7:55 pm 19:55 Cloudy with Mist and Fog 59 15 59 15 100 100 ESE 8 13 30.03 1017 2.5 4.02336 0 0
8:15 pm 20:15 Cloudy with Mist and Fog 57 14 57 14 100 100 Calm 30.03 1017 2.5 4.02336 0 0
8:35 pm 20:35 Cloudy with Mist and Fog 57 14 57 14 100 100 E 5 7 30.03 1017 2 3.218688 0 0
8:55 pm 20:55 Cloudy with Mist and Fog 57 14 57 14 100 100 NE 6 9 30.06 1018 2.5 4.02336 0 0
9:15 pm 21:15 Cloudy with Light Rain 57 14 57 14 100 100 ENE 3 6 30.06 1018 1.75 2.816352 0 0
9:35 pm 21:35 Cloudy with Light Rain 57 14 57 14 100 100 E 7 11 30.03 1017 2 3.218688 0.01 0.254
9:55 pm 21:55 Cloudy with Mist and Fog 57 14 57 14 100 100 SE 3 6 30.03 1017 2.5 4.02336 0.01 0.254
10:15 pm 22:15 Cloudy with Light Rain 57 14 57 14 100 100 SE 5 7 30.03 1017 2.5 4.02336 0 0
10:35 pm 22:35 Cloudy with Mist and Fog 57 14 57 14 100 100 Calm 30.06 1018 2.5 4.02336 0 0
10:55 pm 22:55 Cloudy with Mist and Fog 57 14 57 14 100 100 Calm 30.09 1019 2 3.218688 0 0
11:15 pm 23:15 Cloudy with Mist and Fog 57 14 57 14 100 100 E 3 6 30.06 1018 1.75 2.816352 0 0
11:35 pm 23:35 Cloudy with Nearby Thunderstorms 57 14 57 14 100 100 ESE 5 7 30.06 1018 1.5 2.414016 0 0
11:55 pm 23:55 Cloudy with Mist and Fog 57 14 57 14 100 100 Calm 30.06 1018 1.25 2.01168 0 0

Powered by AerisWeather